Location: Follega
(52.8850°N, 5.7362°E)
Time: 03:47:06
(UTC+00:00)

Cosmos 2297 Rocket - Pass Details

Date: 08 October 2020
Orbit: 838 x 845 km, 71.0° (Epoch: 26 October)

Event Time Altitude Azimuth Distance (km) Brightness Sun altitude
Rises 19:18:15 0° 326° (NNW) 3,417 6.2 -21.9°
Reaches altitude 10° 19:21:15 10° 341° (NNW) 2,479 5.1 -22.3°
Maximum altitude 19:25:43 23° 33° (NNE) 1,734 3.7 -23.0°
Enters shadow 19:26:31 22° 46° (NE) 1,763 3.6 -23.1°
